Regional Weather Roundup
Issued by NWS

Home | Current Version | Previous Version | Graphics & Text | Print | Product List | Glossary On
Versions: 1 2 3 4 5 6 7 8 9 10 11 12 13 14 15 16 17 18 19 20 21 22 23 24 25 26 27 28 29 30 31 32 33 34 35 36 37 38 39 40 41 42 43 44 45 46 47 48 49 50
000
ASUS45 KBOU 050407
RWRCO

WEATHER ROUNDUP FOR COLORADO
NATIONAL WEATHER SERVICE DENVER/BOULDER CO
1000 PM MDT TUE AUG 04 2015

NOTE: "FAIR" INDICATES FEW OR NO CLOUDS BELOW 12000 FEET WITH NO
SIGNIFICANT WEATHER AND/OR OBSTRUCTIONS TO VISIBILITY.

COZ001>005-013-030-031-050500-
...NORTHWEST COLORADO...

CITY           SKY/WX    TMP DP  RH WIND       PRES   REMARKS
CRAIG          NOT AVBL
HAYDEN         PTCLDY    64  39  39 SW5       30.24R
MEEKER         CLEAR     64  40  41 CALM      30.24R
MOUNT WERNER   NOT AVBL
STEAMBOAT SPGS   N/A    N/A N/A N/A MISG        N/A
WALDEN         CLEAR     54  36  50 SE8       30.37R
$$

COZ006>008-011-050500-
...WEST CENTRAL VALLEYS...

CITY           SKY/WX    TMP DP  RH WIND       PRES   REMARKS
GRAND JUNCTION CLEAR     72  35  25 CALM      30.08R
MONTROSE       CLEAR     69  49  48 E8        30.19R
EAGLE          CLEAR     66  39  37 E7        30.27R
RIFLE          PTCLDY    71  48  43 SE6       30.16R
DELTA          CLEAR     73  38  28 E7        30.13R
NUCLA          CLEAR     72  43  35 E9        30.23R
$$

COZ017>023-064>068-050500-
...SOUTHWEST COLORADO...

CITY           SKY/WX    TMP DP  RH WIND       PRES   REMARKS
DURANGO        CLEAR     68  40  35 N7        30.25R
CORTEZ         CLEAR     64  49  57 NE7       30.20R
PAGOSA SPRINGS CLEAR     61  41  48 CALM      30.34R
TELLURIDE      CLEAR     58  43  57 SE8       30.49R
WOLF CREEK PAS NOT AVBL
$$

COZ009-010-012-014-032>034-037-058>063-050500-
...CENTRAL COLORADO...

CITY           SKY/WX    TMP DP  RH WIND       PRES   REMARKS
ASPEN          PTCLDY    57  44  62 SW9       30.36R
BUENA VISTA    CLEAR     60  40  46 NW9       30.37R
COPPER MTN     PTCLDY    54  34  47 W15G22    30.68S
BERTHOUD PASS  FAIR      43  32  65 NW21G28   30.71R
COTTONWOOD PAS CLEAR     61  32  33 W9        30.51R
GUNNISON       CLEAR     61  41  48 NE5       30.38R
KREMMLING      PTCLDY    61  32  33 S5        30.34R
LEADVILLE      CLEAR     51  35  54 E5        30.51R
SALIDA         CLEAR     65  37  36 SW7       30.40R
SUNLIGHT       PTCLDY    54  37  54 CALM      30.61R
WILKERSON PASS NOT AVBL
$$

COZ069>075-050500-
...SAN LUIS VALLEY/SANGRE DE CRISTO MOUNTAINS...

CITY           SKY/WX    TMP DP  RH WIND       PRES   REMARKS
ALAMOSA        PTCLDY    66  39  37 N9        30.31R
LA VETA PASS   CLEAR     55  32  41 MISG      30.52S
SAGUACHE       CLEAR     59  39  47 N9        30.36R
$$

COZ035-036-038>040-050500-
...NORTHERN COLORADO FRONT RANGE...

CITY           SKY/WX    TMP DP  RH WIND       PRES   REMARKS
DENVER INTL AP PTCLDY    70  48  45 E12       30.15R
DMNS CITY PARK   N/A     73  47  39 E10G17    30.14R
AURORA         PTCLDY    68  50  52 E10       30.17R
FRONT RANGE AP NOT AVBL
ERIE MUNI ARPT CLEAR     73  48  42 E8        30.13R
BOULDER MUN AP CLEAR     70  46  43 NE6       30.15R
CENTENNIAL     PTCLDY    70  50  49 S10       30.17R
BROOMFIELD     PTCLDY    72  50  46 NE9       30.17R
FORT COLLINS   CLEAR     68  52  56 CALM      30.15R
LONGMONT       CLEAR     73  50  44 N6        30.15R
$$

COZ041-046-047-076>085-087-088-050500-
...PIKES PEAK/PALMER DIVIDE AND SOUTHERN FOOTHILLS...

CITY           SKY/WX    TMP DP  RH WIND       PRES   REMARKS
COLO. SPRINGS  PTCLDY    68  54  60 N7        30.23R
A. F. ACADEMY  CLEAR     64  52  64 N3        30.25R
ELLICOTT       CLEAR    N/A N/A N/A E15G21    30.20R
FALCON         MOCLDY    62  54  76 N3        30.28R
FORT CARSON    NOT AVBL
LIMON          CLEAR     60  55  83 CALM      30.17R
MONUMENT HILL  CLEAR     55  52  88 S8        30.28R
TRINIDAD       CLEAR     69  45  41 W7        30.13R
$$

COZ042>045-048>051-090-091-050500-
...NORTHEAST COLORADO...

CITY           SKY/WX    TMP DP  RH WIND       PRES   REMARKS
GREELEY ARPT   CLEAR     64  54  68 SE3       30.12S
AKRON          CLEAR     68  57  68 S8        30.10R
BURLINGTON     CLEAR     67  62  84 SE8       30.08R
WRAY           CLEAR     64  58  81 NW5       30.05R
STERLING       CLEAR     64  55  72 CALM      30.06R
HOLYOKE        CLEAR     64  61  88 NE3       30.07R
FORT MORGAN    CLEAR     67  53  61 CALM      30.11R
$$

COZ086-089-092>099-050500-
...SOUTHEAST COLORADO...

CITY           SKY/WX    TMP DP  RH WIND       PRES   REMARKS
PUEBLO         CLEAR     77  58  51 NE13      30.09R
LA JUNTA       CLEAR     77  62  59 E17G28    30.05R
LAMAR          CLEAR     74  62  66 NE13      29.99R
SPRINGFIELD      N/A     74  62  66 S12       30.03R
$$



USA.gov is the U.S. government's official web portal to all federal, state and local government web resources and services.